Regional Weather Roundup
Issued by NWS State College, PA

Home | Current Version | Previous Version | Graphics & Text | Print | Product List | Glossary Off
Versions: 1 2 3 4 5 6 7 8 9 10 11 12 13 14 15 16 17 18 19 20 21 22 23 24 25 26 27 28 29 30 31 32 33 34 35 36 37 38 39 40 41 42 43 44 45 46 47 48 49 50

000
ASUS41 KCTP 262010
RWRCTP

REGIONAL WEATHER ROUNDUP
NATIONAL WEATHER SERVICE STATE COLLEGE PA
400 PM EDT TUE MAY 26 2015

Note: "fair" indicates few or no clouds below 12,000 feet with no
significant weather and/or obstructions to visibility.

* = STATION THAT DOES NOT REPORT PRECIPITATION /E.G. RAIN...SNOW...ETC/
    THUNDER OR FOG.

PAZ002>004-007>009-013>016-020>023-029>032-262100-
WESTERN PENNSYLVANIA

CITY           SKY/WX    TMP DP  RH WIND       PRES   REMARKS
ERIE           MOSUNNY   82  62  50 S10G17    30.05F
MEADVILLE      PTSUNNY   77  62  59 S12G17    30.10F
FRANKLIN*      MOSUNNY   77  63  61 SE12G20   30.14F
NEW CASTLE     MOCLDY    80  67  64 CALM      30.10F
BEAVER COUNTY  PTSUNNY   77  64  65 S10G16    30.12F
BUTLER*        PTSUNNY   77  64  65 S7        30.15F
PITTSBURGH INT PTSUNNY   78  65  63 S13       30.12F
PITTSBURGH     CLOUDY    75  62  64 S9        30.13F
INDIANA*       PTSUNNY   72  68  88 S7        30.21F
LATROBE        PTSUNNY   73  68  83 CALM      30.18F
WASHINGTON CO* PTSUNNY   79  66  65 SE7       30.15F
$$

PAZ004>006-010>012-017>019-024>028-033>037-041-042-045-046-049>053-262100-
CENTRAL PENNSYLVANIA

CITY           SKY/WX    TMP DP  RH WIND       PRES   REMARKS
BRADFORD       CLOUDY    74  60  61 SW12G20   30.18S
DUBOIS         CLOUDY    74  63  68 VRB7      30.18F
CLEARFIELD     LGT RAIN  72  64  76 SW7       30.19F
JOHNSTOWN      CLOUDY    71  62  73 VRB5      30.22F
ALTOONA        PTSUNNY   80  62  54 W5        30.20F
STATE COLLEGE  PTSUNNY   79  63  57 W12       30.18F
WILLIAMSPORT   LGT RAIN  74  69  85 N3        30.14F
SELINSGROVE    MOSUNNY   86  64  47 S9        30.14F
FT INDIANTOWN  MOSUNNY   85  64  49 S8        30.14F
CAPITAL CITY   PTSUNNY   85  62  46 S6        30.14F
HARRISBURG     PTSUNNY   85  62  46 SW8       30.13F
YORK           CLOUDY    82  64  54 SW6       30.16F
$$

PAZ038>040-043-044-047-048-054-055-060>062-067>071-262100-
EASTERN PENNSYLVANIA

CITY           SKY/WX    TMP DP  RH WIND       PRES   REMARKS
SCRANTON       PTSUNNY   87  60  40 SW13G21   30.14F
MOUNT POCONO   PTSUNNY   80  59  48 SW10      30.20F
ALLENTOWN      CLOUDY    87  61  41 SW15      30.15F
QUAKERTOWN*    MOCLDY    86  61  42 SW9       30.17F
READING        MOSUNNY   89  61  38 SW12G20   30.13F
LANCASTER      MOSUNNY   87  62  43 W9        30.15F
COATESVILLE    CLEAR     82  64  54 S5        30.19F
POTTSTOWN      MOSUNNY   86  59  39 SW7       30.17F
BLUE BELL      MOSUNNY   88  61  40 SW8       30.16F
DOYLESTOWN     MOSUNNY   84  58  40 S12       30.15F
WILLOW GROVE   NOT AVBL
NORTH PHILA    PTSUNNY   87  58  37 S10G21    30.17F
PHILADELPHIA   PTSUNNY   87  61  41 SW15      30.16F
$$



USA.gov is the U.S. government's official web portal to all federal, state and local government web resources and services.